z  +0.0048724      Peri.  100.03769     -0.33121096     -0.77309111

 +/-0.0000016      Node    35.01655     -0.21422409     -0.49672796

e   0.9668845      Incl.   70.51569     +0.91891639     -0.39445084

From 253 observations 2001 Oct. 27-2004 Nov. 25, mean residual 0".49.

   (1/a)org.= +0.005288, (1/a)fut.= +0.005393 (+/-0.000002), Q= 8.



NAKANO

         **** Don't distribute anyone except personal use only ****

                (C) Copyright 2005 OAA/ComputingSection

write mail from CFAD0::NAKANO on 2005-01-04 01:58:03(JST).



    C/2002 VQ94 (LINEAR)                                                  

Epoch 2006 Jan. 25.0 TT = JDT 2453760.5  

T 2006 Feb. 6.66282 TT                                  Nakano

q   6.7967229            (2000.0)            P               Q

z  +0.0048787      Peri.  100.03648     -0.33119567     -0.77309894

 +/-0.0000024      Node    35.01645     -0.21421091     -0.49673165

e   0.9668407      Incl.   70.51554     +0.91892498     -0.39443085

From 222 observations 2001 Oct. 27-2004 Apr. 1, mean residual 0".46.

   (1/a)org.= +0.005294, (1/a)fut.= +0.005400 (+/-0.000002), Q= 8.



NAKANO

         **** Don't distribute anyone except personal use only ****

                (C) Copyright 2004 OAA/ComputingSection

write mail from CFAD0::NAKANO on 2004-04

    C/2002 VQ94 (LINEAR)                                                  

Epoch 2006 Jan. 25.0 TT = JDT 2453760.5  

T 2006 Feb. 6.66963 TT                                  Nakano

q   6.7966992            (2000.0)            P               Q

z  +0.0048815      Peri.  100.03687     -0.33120044     -0.77309629

 +/-0.0000033      Node    35.01649     -0.21421549     -0.49673061

e   0.9668218      Incl.   70.51561     +0.91892219     -0.39443734

From 198 observations 2001 Oct. 27-2003 Nov. 20, mean residual 0.45.

   (1/a)org.= +0.005297, (1/a)fut.= +0.005402 (+/-0.000003), Q= 8.



NAKANO

         **** Don't distribute anyone except personal use only ****

                (C) Copyright 2003 OAA/ComputingSection

write mail from CFAD0::NAKANO on 2003-12-14 18:52:00(JST).

 



  C/2002 VQ94 (LINEAR)                                                  

Epoch 2006 Jan. 25.0 TT = JDT 2453760.5  

T 2006 Feb. 6.65787 TT                                  Nakano

q   6.7967210            (2000.0)            P               Q

z  +0.0048769      Peri.  100.03638     -0.33119513     -0.77310006

 +/-0.0000043      Node    35.01638     -0.21420820     -0.49673144

e   0.9668534      Incl.   70.51544     +0.91892581     -0.39442893

From 166 observations 2001 Oct. 27-2003 Sept. 5, mean residual 0".47.

   (1/a)org.= +0.005292, (1/a)fut.= +0.005398 (+/-0.000004), Q= 7.

                         

NAKANO

         **** Don't distribute anyone except personal use only ****

                (C) Copyright 2003 OAA/ComputingSection

write mail from CFAD0::NAKANO on 2003-09-14 04:53:52(JST).





◎C/2002 VQ94の軌道と予報位置です



 周期が約3000年の長円軌道を動くこの小惑星も,彗星であることが判明

しました.



    C/2002 VQ94 (LINEAR)                                                  

Epoch 2006 Jan. 25.0 TT = JDT 2453760.5  

T 2006 Feb. 6.65536 TT                                  Nakano

q   6.7967031            (2000.0)            P               Q

z  +0.0048760      Peri.  100.03646     -0.33119578     -0.77309929

 +/-0.0000043      Node    35.01642     -0.21420998     -0.49673144

e   0.9668590      Incl.   70.51550     +0.91892516     -0.39443044

P2937 years

From 156 observations 2001 Oct. 27-2003 Sept. 3, mean residual 0".47.

   (1/a)org.= +0.005291, (1/a)fut.= +0.005397 (+/-0.000004), Q= 7.

 

Date/        TT  R.A.(2000) Decl.     Delta   r     Daily motion  Mag.  Moon Age

              h    h  m       。  ,                      ,  / PA 。  m1      。

2003 Sept. 5 18  02 50.15  +59 23.5   8.583  8.804     6.8 / 337  18.7  128  .74

           6 18  02 49.80  +59 29.8   8.567  8.800     6.8 / 336  18.7  119  .83

           7 18  02 49.44  +59 36.0   8.552  8.796     6.8 / 335  18.7  109  .90

           8 18  02 49.06  +59 42.3   8.536  8.792     6.8 / 334  18.7   99  .96

           9 18  02 48.67  +59 48.4   8.520  8.788     6.9 / 333  18.7   89  .99

          10 18  02 48.26  +59 54.5   8.505  8.784     6.9 / 332  18.7   80 1.00

          11 18  02 47.83  +60 00.6   8.489  8.781     6.9 / 331  18.7   70  .99

          12 18  02 47.39  +60 06.6   8.474  8.777     6.9 / 330  18.7   62  .96

          13 18  02 46.93  +60 12.6   8.459  8.773     6.9 / 329  18.7   54  .91

          14 18  02 46.45  +60 18.5   8.444  8.769     6.9 / 328  18.7   48  .85

          15 18  02 45.96  +60 24.4   8.429  8.765     6.9 / 327  18.7   43  .77

          16 18  02 45.45  +60 30.2   8.414  8.761     6.9 / 326  18.7   41  .69

          17 18  02 44.92  +60 35.9   8.399  8.758     7.0 / 325  18.7   42  .60

          18 18  02 44.37  +60 41.6   8.384  8.754     7.0 / 324  18.7   45  .50

          19 18  02 43.81  +60 47.2   8.370  8.750     7.0 / 323  18.6   51  .41

          20 18  02 43.23  +60 52.8   8.356  8.746     7.0 / 322  18.6   58  .31

          21 18  02 42.64  +60 58.3   8.341  8.742     7.0 / 321  18.6   66  .22

          22 18  02 42.03  +61 03.7   8.327  8.739     7.0 / 320  18.6   76  .14

          23 18  02 41.40  +61 09.0   8.313  8.735     7.0 / 319  18.6   86  .08

          24 18  02 40.75  +61 14.3   8.299  8.731     7.0 / 317  18.6   96  .03

          25 18  02 40.09  +61 19.5   8.286  8.727     7.1 / 316  18.6  106  .00

          26 18  02 39.41  +61 24.6   8.272  8.723     7.1 / 315  18.6  117  .01

          27 18  02 38.72  +61 29.6   8.259  8.720     7.1 / 314  18.6  126  .04

          28 18  02 38.01  +61 34.6   8.245  8.716     7.1 / 313  18.6  133  .10

          29 18  02 37.28  +61 39.4   8.232  8.712     7.1 / 312  18.6  137  .18

          30 18  02 36.54  +61 44.2   8.219  8.708     7.1 / 311  18.6  137  .27

     Oct.  1 18  02 35.79  +61 48.9   8.206  8.704     7.1 / 310  18.6  134  .38

           2 18  02 35.01  +61 53.5   8.194  8.701     7.1 / 309  18.6  127  .49

           3 18  02 34.23  +61 58.0   8.181  8.697     7.2 / 308  18.6  119  .60

           4 18  02 33.42  +62 02.4   8.169  8.693     7.2 / 307  18.6  110  .71

           5 18  02 32.61  +62 06.7   8.157  8.689     7.2 / 306  18.6  101  .80

NAKANO

         **** Don't distribute anyone except personal use only ****

                (C) Copyright 2003 OAA/ComputingSection

write mail from CFAD0::NAKANO on 2003-09-05 05:42:41(JST).

 

戻ります。